KM4RT-13 Weather Reports


time (UTC)temp
C
wind
direction
speed
KPH
gust
KPH
rain 1hr
cm
rain 24hr
cm
rain mn
cm
humidity
%
barometer
mb
20260906052745 25 8 0.0 0.0 0.00 0.00 0.00 99 1009.4
20260906052241 25 8 0.0 0.0 0.00 0.00 0.00 99 1009.5
20260906051738 25 8 0.0 0.0 0.00 0.00 0.00 99 1009.3
20260906051237 25 8 0.0 0.0 0.00 0.00 0.00 99 1009.7
20260906050733 25 8 0.0 0.0 0.00 0.00 0.00 99 1009.4
20260906050227 25 8 0.0 0.0 0.00 0.00 0.00 99 1009.2
20260906045726 25 8 0.0 0.0 0.00 0.56 0.56 99 1009.4
20260906045216 25 8 0.0 1.6 0.00 0.56 0.56 99 1009.3
20260906044711 25 8 1.6 1.6 0.00 0.56 0.56 99 1009.1
20260906044206 25 9 0.0 0.0 0.00 0.56 0.56 99 1009.4
20260906043702 25 9 0.0 1.6 0.00 0.56 0.56 99 1009.2
20260906043157 25 9 0.0 1.6 0.00 0.56 0.56 99 1009.3
20260906042651 25 9 0.0 0.0 0.00 0.56 0.56 99 1009.1
20260906042145 25 9 0.0 0.0 0.00 0.56 0.56 99 1009.3
20260906041641 25 8 0.0 0.0 0.00 0.56 0.56 99 1009.2
20260906041136 26 8 0.0 0.0 0.00 0.56 0.56 98 1009.1
20260906040631 26 9 1.6 3.2 0.00 0.56 0.56 97 1009.2
20260906040127 26 351 1.6 1.6 0.00 0.56 0.56 96 1009.2
20260906035622 26 349 0.0 0.0 0.00 0.56 0.56 96 1009.0
20260906035117 26 349 0.0 0.0 0.00 0.56 0.56 96 1009.3
20260906034612 26 349 0.0 0.0 0.00 0.56 0.56 96 1009.3
20260906034106 26 349 0.0 0.0 0.00 0.56 0.56 97 1009.0
20260906033601 26 349 0.0 0.0 0.00 0.56 0.56 97 1009.1
20260906033057 26 349 0.0 0.0 0.00 0.56 0.56 96 1009.3
20260906032554 26 349 0.0 0.0 0.00 0.56 0.56 96 1009.4
20260906032048 26 349 0.0 0.0 0.00 0.56 0.56 96 1009.4
20260906031544 26 349 0.0 0.0 0.00 0.56 0.56 96 1009.2
20260906031039 26 349 0.0 0.0 0.00 0.56 0.56 95 1009.2
20260906030538 26 349 0.0 0.0 0.00 0.56 0.56 94 1009.1
20260906030037 26 349 0.0 0.0 0.00 0.56 0.56 94 1009.2
20260906025532 26 349 0.0 0.0 0.00 0.56 0.56 93 1009.2
20260906025030 26 349 0.0 0.0 0.00 0.56 0.56 92 1009.2
20260906024525 26 349 0.0 0.0 0.00 0.56 0.56 92 1009.3
20260906024020 26 349 0.0 0.0 0.00 0.56 0.56 93 1009.1
20260906023516 27 349 0.0 0.0 0.00 0.56 0.56 94 1009.4
20260906023010 27 349 0.0 0.0 0.00 0.56 0.56 94 1009.2
20260906022506 26 349 0.0 1.6 0.00 0.56 0.56 94 1009.2
20260906021955 26 349 1.6 1.6 0.00 0.56 0.56 92 1009.0
20260906021450 27 351 0.0 0.0 0.00 0.56 0.56 92 1008.9
20260906020944 27 351 0.0 0.0 0.00 0.56 0.56 91 1009.0
20260906020438 27 349 0.0 0.0 0.00 0.56 0.56 89 1009.0
20260906015933 27 348 0.0 0.0 0.00 0.56 0.56 89 1008.8
20260906015427 27 348 0.0 1.6 0.00 0.56 0.56 89 1008.7
20260906014927 27 348 1.6 1.6 0.00 0.56 0.56 89 1008.8
20260906014427 27 349 0.0 0.0 0.00 0.56 0.56 91 1008.5
20260906013923 27 349 0.0 0.0 0.00 0.56 0.56 90 1008.7
20260906013418 27 349 0.0 0.0 0.00 0.56 0.56 89 1008.8
20260906012914 28 349 0.0 0.0 0.00 0.56 0.56 91 1008.6
20260906012408 28 349 0.0 0.0 0.00 0.56 0.56 89 1008.5
20260906011908 28 349 0.0 0.0 0.00 0.56 0.56 87 1008.6
20260906011403 28 349 0.0 0.0 0.00 0.56 0.56 90 1008.7
20260906010858 28 349 0.0 0.0 0.00 0.56 0.56 90 1008.2
20260906010354 28 349 0.0 0.0 0.00 0.56 0.56 88 1008.5
20260906005850 28 348 0.0 0.0 0.00 0.56 0.56 88 1008.4
20260906005349 28 348 1.6 1.6 0.00 0.56 0.56 88 1008.1
20260906004848 28 350 0.0 0.0 0.00 0.56 0.56 90 1008.2
20260906004348 29 350 0.0 0.0 0.00 0.56 0.56 89 1008.2
20260906003843 29 350 0.0 0.0 0.00 0.56 0.56 87 1008.3
20260906003338 29 350 0.0 0.0 0.00 0.56 0.56 86 1008.1
20260906002834 30 350 0.0 0.0 0.00 0.56 0.56 86 1008.0
20260906002333 30 346 1.6 1.6 0.00 0.56 0.56 85 1008.2
20260906001829 30 334 0.0 0.0 0.00 0.56 0.56 82 1008.1
20260906001324 30 334 0.0 0.0 0.00 0.56 0.56 78 1008.4
20260906000819 30 334 0.0 0.0 0.00 0.56 0.56 80 1008.1
20260906000314 31 324 1.6 1.6 0.00 0.56 0.56 81 1008.1
20260905235809 31 87 0.0 0.0 0.00 0.56 0.56 83 1008.1
20260905235308 31 88 0.0 0.0 0.00 0.56 0.56 80 1008.3
20260905234804 31 88 0.0 1.6 0.00 0.56 0.56 81 1008.2
20260905234259 32 89 1.6 1.6 0.00 0.56 0.56 78 1008.2
20260905233754 32 66 0.0 1.6 0.00 0.56 0.56 81 1008.1
20260905233254 33 334 1.6 1.6 0.00 0.56 0.56 78 1008.2
20260905232753 33 333 1.6 1.6 0.00 0.56 0.56 72 1008.3
20260905232249 33 78 0.0 1.6 0.00 0.56 0.56 72 1008.3
20260905231745 33 79 1.6 1.6 0.00 0.56 0.56 77 1008.5
20260905231240 33 332 1.6 1.6 0.00 0.56 0.56 75 1008.4
20260905230736 33 327 1.6 1.6 0.00 0.56 0.56 71 1008.3
20260905230234 33 308 1.6 1.6 0.00 0.56 0.56 70 1008.2
20260905225733 33 317 1.6 1.6 0.00 0.56 0.56 71 1008.3
20260905225229 33 201 3.2 3.2 0.00 0.56 0.56 70 1008.3
20260905224728 33 187 3.2 4.8 0.00 0.56 0.56 67 1008.4
20260905224223 34 241 1.6 3.2 0.00 0.56 0.56 66 1008.4
20260905223719 33 334 1.6 1.6 0.00 0.56 0.56 73 1008.5
20260905223216 33 269 1.6 1.6 0.00 0.56 0.56 73 1008.6
20260905222712 33 238 3.2 3.2 0.00 0.56 0.56 74 1008.5
20260905222211 32 209 3.2 3.2 0.00 0.56 0.56 75 1008.3
20260905221706 32 205 3.2 4.8 0.00 0.56 0.56 74 1008.6
20260905221203 33 202 3.2 3.2 0.00 0.56 0.56 75 1008.4
20260905220659 33 193 1.6 1.6 0.00 0.56 0.56 70 1008.4
20260905220155 32 163 3.2 3.2 0.00 0.56 0.56 72 1008.5
20260905215654 32 311 1.6 1.6 0.00 0.56 0.56 72 1008.6
20260905215150 32 239 1.6 1.6 0.00 0.56 0.56 75 1008.5
20260905214646 31 182 4.8 4.8 0.00 0.56 0.56 76 1008.5
20260905214141 31 205 3.2 3.2 0.00 0.56 0.56 82 1008.6
20260905213637 28 270 3.2 3.2 0.00 0.56 0.56 81 1008.8
20260905213132 28 268 1.6 1.6 0.00 0.56 0.56 89 1008.9
20260905212627 27 308 1.6 1.6 0.00 0.56 0.56 93 1008.8
20260905212126 27 173 3.2 4.8 0.00 0.56 0.56 92 1008.7
20260905211621 26 317 3.2 3.2 0.00 0.56 0.56 92 1008.8
20260905211111 26 358 0.0 1.6 0.00 0.56 0.56 97 1008.8
20260905210608 25 352 1.6 1.6 0.00 0.56 0.56 95 1009.0
20260905205601 25 248 4.8 4.8 0.13 0.56 0.56 90 1009.1
20260905205100 25 184 3.2 4.8 0.13 0.56 0.56 90 1009.4
20260905204555 26 222 8.0 11.3 1.85 0.53 0.53 87 1009.3
20260905204050 24 214 25.7 29.0 3.07 0.51 0.51 82 1010.0
20260905203550 26 186 37.0 40.2 1.37 0.23 0.23 96 1010.3
20260905203045 35 2 9.7 14.5 0.00 0.00 0.00 53 1009.5
20260905202540 35 28 6.4 6.4 0.00 0.00 0.00 51 1009.4
20260905202036 36 32 3.2 6.4 0.00 0.00 0.00 49 1009.3
20260905201532 36 15 0.0 0.0 0.00 0.00 0.00 46 1009.3
20260905201031 36 150 3.2 3.2 0.00 0.00 0.00 48 1009.3
20260905200526 36 23 0.0 1.6 0.00 0.00 0.00 48 1009.7
20260905200020 36 81 4.8 4.8 0.00 0.00 0.00 47 1009.4
20260905195515 36 97 3.2 3.2 0.00 0.00 0.00 49 1009.5
20260905195010 36 37 3.2 4.8 0.00 0.00 0.00 47 1009.7
20260905194509 36 128 4.8 4.8 0.00 0.00 0.00 47 1009.4
20260905194004 38 138 6.4 12.9 0.00 0.00 0.00 46 1009.7
20260905193504 37 154 4.8 4.8 0.00 0.00 0.00 46 1010.0
20260905192959 37 136 6.4 6.4 0.00 0.00 0.00 47 1009.9
20260905192455 38 36 3.2 4.8 0.00 0.00 0.00 46 1009.9
20260905191951 37 72 0.0 1.6 0.00 0.00 0.00 47 1010.1
20260905191449 36 163 6.4 6.4 0.00 0.00 0.00 46 1010.1
20260905190943 36 141 3.2 3.2 0.00 0.00 0.00 47 1010.2
20260905190441 36 63 8.0 11.3 0.00 0.00 0.00 46 1010.3
20260905185940 36 45 4.8 6.4 0.00 0.00 0.00 48 1010.3
20260905185435 35 37 0.0 1.6 0.00 0.00 0.00 51 1010.5
20260905184933 35 93 3.2 3.2 0.00 0.00 0.00 56 1010.4
20260905184423 35 86 3.2 3.2 0.00 0.00 0.00 54 1010.4
20260905183922 35 48 3.2 4.8 0.00 0.00 0.00 55 1010.5
20260905183416 35 18 8.0 9.7 0.00 0.00 0.00 52 1010.7
20260905182911 35 69 8.0 11.3 0.00 0.00 0.00 52 1010.5
20260905182410 36 16 9.7 12.9 0.00 0.00 0.00 51 1010.6
20260905181906 36 22 6.4 9.7 0.00 0.00 0.00 50 1010.5
20260905181401 36 359 4.8 4.8 0.00 0.00 0.00 49 1010.6
20260905180900 37 184 6.4 9.7 0.00 0.00 0.00 45 1010.9
20260905180355 36 148 4.8 4.8 0.00 0.00 0.00 47 1010.8
20260905175850 36 167 3.2 3.2 0.00 0.00 0.00 49 1010.8
20260905175349 35 173 3.2 3.2 0.00 0.00 0.00 50 1011.0
20260905174844 35 124 1.6 3.2 0.00 0.00 0.00 50 1011.0
20260905174340 35 17 6.4 6.4 0.00 0.00 0.00 50 1010.9
20260905173831 36 56 3.2 4.8 0.00 0.00 0.00 51 1011.0
20260905173327 36 73 6.4 6.4 0.00 0.00 0.00 49 1011.0
20260905172827 37 53 12.9 14.5 0.00 0.00 0.00 48 1011.0
20260905172324 35 68 6.4 6.4 0.00 0.00 0.00 51 1011.0
20260905171821 35 114 6.4 9.7 0.00 0.00 0.00 52 1011.4
20260905171317 36 19 1.6 1.6 0.00 0.00 0.00 50 1011.1
20260905170814 35 352 4.8 4.8 0.00 0.00 0.00 52 1011.1
20260905170309 36 312 9.7 11.3 0.00 0.00 0.00 52 1011.3
20260905165807 36 197 3.2 4.8 0.00 0.00 0.00 50 1011.2
20260905165306 36 309 1.6 3.2 0.00 0.00 0.00 52 1011.3
20260905164757 36 0 3.2 4.8 0.00 0.00 0.00 51 1011.4
20260905164252 36 38 3.2 4.8 0.00 0.00 0.00 53 1011.7
20260905163748 36 19 4.8 4.8 0.00 0.00 0.00 52 1011.6
20260905163244 35 8 3.2 4.8 0.00 0.00 0.00 55 1011.6
20260905162740 35 356 6.4 6.4 0.00 0.00 0.00 54 1011.7
20260905162239 35 56 4.8 4.8 0.00 0.00 0.00 53 1011.6
20260905161734 35 7 4.8 6.4 0.00 0.00 0.00 55 1011.5
20260905161232 35 353 4.8 4.8 0.00 0.00 0.00 55 1011.8
20260905160731 35 39 0.0 1.6 0.00 0.00 0.00 56 1011.8
20260905160226 35 17 3.2 6.4 0.00 0.00 0.00 58 1012.0
20260905155726 35 14 3.2 4.8 0.00 0.00 0.00 58 1011.8
20260905155220 34 328 9.7 11.3 0.00 0.00 0.00 59 1011.8
20260905154713 35 4 3.2 4.8 0.00 0.00 0.00 59 1012.0
20260905154203 34 348 1.6 3.2 0.00 0.00 0.00 59 1011.8
20260905153659 33 2 1.6 1.6 0.00 0.00 0.00 59 1012.2
20260905153154 33 75 4.8 4.8 0.00 0.00 0.00 60 1011.9
20260905152649 33 335 4.8 4.8 0.00 0.00 0.00 62 1012.0
20260905152143 33 26 4.8 6.4 0.00 0.00 0.00 62 1011.9
20260905151638 33 51 1.6 3.2 0.00 0.00 0.00 61 1012.1
20260905151128 33 346 4.8 4.8 0.00 0.00 0.00 64 1012.1
20260905150624 33 7 0.0 1.6 0.00 0.00 0.00 64 1012.1
20260905150122 32 19 3.2 3.2 0.00 0.00 0.00 66 1012.0
20260905145621 32 325 4.8 4.8 0.00 0.00 0.00 68 1012.0
20260905145120 32 1 1.6 1.6 0.00 0.00 0.00 68 1012.1
20260905144620 33 347 1.6 3.2 0.00 0.00 0.00 66 1011.9
20260905144120 32 344 1.6 1.6 0.00 0.00 0.00 69 1011.9
20260905143620 31 353 1.6 1.6 0.00 0.00 0.00 71 1012.0
20260905143114 31 4 1.6 3.2 0.00 0.00 0.00 72 1011.9
20260905142614 31 24 3.2 3.2 0.00 0.00 0.00 72 1011.8
20260905142113 31 30 1.6 1.6 0.00 0.00 0.00 71 1011.9
20260905141613 30 36 0.0 0.0 0.00 0.00 0.00 72 1012.0
20260905141110 30 352 3.2 3.2 0.00 0.00 0.00 74 1012.0
20260905140605 30 233 1.6 1.6 0.00 0.00 0.00 76 1012.1
20260905140104 30 350 1.6 1.6 0.00 0.00 0.00 77 1011.9
20260905135559 30 249 0.0 1.6 0.00 0.00 0.00 76 1011.9
20260905135054 28 250 1.6 1.6 0.00 0.00 0.00 79 1011.8
20260905134548 28 250 1.6 3.2 0.00 0.00 0.00 81 1011.7
20260905134047 28 248 3.2 3.2 0.00 0.00 0.00 82 1012.0
20260905133542 27 248 3.2 4.8 0.00 0.00 0.00 83 1011.9
20260905133036 27 248 6.4 6.4 0.00 0.00 0.00 84 1011.8
20260905132531 27 273 3.2 4.8 0.00 0.00 0.00 85 1012.0
20260905132026 27 273 4.8 4.8 0.00 0.00 0.00 85 1011.9
20260905131521 27 323 0.0 1.6 0.00 0.00 0.00 84 1011.7
20260905131016 27 323 1.6 3.2 0.00 0.00 0.00 87 1011.7
20260905130515 26 323 0.0 0.0 0.00 0.00 0.00 87 1011.7
20260905130010 26 323 0.0 1.6 0.00 0.00 0.00 88 1011.8
20260905125459 26 323 0.0 0.0 0.00 0.00 0.00 89 1011.7
20260905124955 26 323 0.0 0.0 0.00 0.00 0.00 91 1011.8
20260905124451 25 323 0.0 0.0 0.00 0.00 0.00 92 1011.7
20260905123947 25 323 0.0 0.0 0.00 0.00 0.00 94 1011.7
20260905123443 24 323 0.0 0.0 0.00 0.00 0.00 96 1011.6
20260905122942 23 323 0.0 0.0 0.00 0.00 0.00 97 1011.4
20260905122437 23 323 0.0 0.0 0.00 0.00 0.00 98 1011.6
20260905121933 23 323 0.0 1.6 0.00 0.00 0.00 99 1011.5
20260905121428 22 323 0.0 0.0 0.00 0.00 0.00 99 1011.8
20260905120927 22 323 0.0 0.0 0.00 0.00 0.00 99 1011.7
20260905120422 22 323 0.0 0.0 0.00 0.00 0.00 99 1011.5
20260905115917 22 323 0.0 0.0 0.00 0.00 0.00 99 1011.4
20260905115416 22 323 3.2 3.2 0.00 0.00 0.00 99 1011.2
20260905114911 22 323 1.6 1.6 0.00 0.00 0.00 99 1011.2
20260905114410 22 323 1.6 1.6 0.00 0.00 0.00 99 1011.2
20260905113904 22 323 0.0 0.0 0.00 0.00 0.00 99 1011.1
20260905113359 22 323 1.6 3.2 0.00 0.00 0.00 99 1011.1
20260905112855 22 323 1.6 3.2 0.00 0.00 0.00 99 1011.1
20260905112350 22 323 0.0 0.0 0.00 0.00 0.00 99 1010.8
20260905111845 22 323 0.0 0.0 0.00 0.00 0.00 99 1010.9
20260905111339 22 323 0.0 0.0 0.00 0.00 0.00 99 1010.7
20260905110838 22 323 1.6 3.2 0.00 0.00 0.00 99 1010.9
20260905110338 22 323 1.6 1.6 0.00 0.00 0.00 99 1010.7
20260905105828 22 323 0.0 0.0 0.00 0.00 0.00 99 1010.7
20260905105327 22 323 0.0 0.0 0.00 0.00 0.00 99 1010.8
20260905104821 22 323 1.6 1.6 0.00 0.00 0.00 99 1010.8
20260905104318 22 323 0.0 1.6 0.00 0.00 0.00 99 1010.8
20260905103817 23 323 0.0 0.0 0.00 0.00 0.00 99 1010.9
20260905103313 23 323 0.0 0.0 0.00 0.00 0.00 99 1010.9
20260905102809 23 323 1.6 1.6 0.00 0.00 0.00 99 1010.7
20260905102306 22 323 1.6 1.6 0.00 0.00 0.00 99 1010.8
20260905101805 22 323 0.0 0.0 0.00 0.00 0.00 99 1010.6
20260905101304 23 323 0.0 0.0 0.00 0.00 0.00 99 1010.7
20260905100757 23 323 0.0 0.0 0.00 0.00 0.00 99 1010.8
20260905100253 23 323 0.0 0.0 0.00 0.00 0.00 99 1010.8
20260905095753 23 323 0.0 0.0 0.00 0.00 0.00 98 1010.7
20260905095247 23 323 0.0 0.0 0.00 0.00 0.00 98 1010.9
20260905094741 23 323 0.0 0.0 0.00 0.00 0.00 98 1011.0
20260905094237 23 323 0.0 0.0 0.00 0.00 0.00 98 1010.9
20260905093731 23 323 0.0 0.0 0.00 0.00 0.00 98 1010.8
20260905093227 23 323 0.0 0.0 0.00 0.00 0.00 98 1010.7
20260905092722 23 323 0.0 1.6 0.00 0.00 0.00 98 1011.0
20260905092217 23 323 1.6 1.6 0.00 0.00 0.00 98 1010.6
20260905091717 23 323 1.6 1.6 0.00 0.00 0.00 98 1010.5
20260905091212 23 323 0.0 0.0 0.00 0.00 0.00 98 1010.6
20260905090711 23 323 1.6 1.6 0.00 0.00 0.00 98 1010.4
20260905090207 23 323 1.6 1.6 0.00 0.00 0.00 98 1010.6
20260905085705 23 323 0.0 1.6 0.00 0.00 0.00 97 1010.4
20260905085200 23 323 0.0 0.0 0.00 0.00 0.00 97 1010.7
20260905084654 23 323 0.0 0.0 0.00 0.00 0.00 96 1010.7
20260905084150 23 323 0.0 0.0 0.00 0.00 0.00 96 1010.5
20260905083650 23 323 0.0 0.0 0.00 0.00 0.00 96 1010.7
20260905083146 23 323 1.6 1.6 0.00 0.00 0.00 96 1010.7
20260905082642 23 323 0.0 0.0 0.00 0.00 0.00 96 1010.8
20260905082137 23 15 1.6 1.6 0.00 0.00 0.00 97 1010.7
20260905081632 23 16 0.0 0.0 0.00 0.00 0.00 97 1010.7
20260905081132 23 15 1.6 1.6 0.00 0.00 0.00 96 1010.8
20260905080626 23 16 0.0 1.6 0.00 0.00 0.00 96 1010.9
20260905080121 23 16 1.6 1.6 0.00 0.00 0.00 96 1010.9
20260905075620 24 336 1.6 1.6 0.00 0.00 0.00 95 1010.8
20260905075119 24 0 1.6 1.6 0.00 0.00 0.00 96 1010.8
20260905074618 23 55 0.0 1.6 0.00 0.00 0.00 95 1010.9
20260905074115 24 355 0.0 0.0 0.00 0.00 0.00 95 1010.7
20260905073610 24 345 1.6 1.6 0.00 0.00 0.00 95 1010.8
20260905073106 24 333 0.0 0.0 0.00 0.00 0.00 95 1010.8
20260905072604 24 346 1.6 1.6 0.00 0.00 0.00 95 1011.0
20260905072100 24 347 0.0 0.0 0.00 0.00 0.00 95 1011.0
20260905071557 24 347 0.0 0.0 0.00 0.00 0.00 94 1010.9
20260905071057 24 346 0.0 1.6 0.00 0.00 0.00 95 1010.9
20260905070552 24 80 0.0 0.0 0.00 0.00 0.00 95 1010.8
20260905070048 24 57 1.6 1.6 0.00 0.00 0.00 94 1011.0
20260905065545 24 355 1.6 1.6 0.00 0.00 0.00 94 1011.1
20260905065042 24 354 0.0 0.0 0.00 0.00 0.00 94 1010.9
20260905064541 24 354 0.0 0.0 0.00 0.00 0.00 94 1010.9
20260905064037 24 354 0.0 0.0 0.00 0.00 0.00 94 1010.9
20260905063536 24 355 0.0 0.0 0.00 0.00 0.00 93 1010.9
20260905063032 24 355 0.0 0.0 0.00 0.00 0.00 93 1011.0
20260905062532 25 355 1.6 1.6 0.00 0.00 0.00 93 1011.0
20260905062026 25 355 0.0 0.0 0.00 0.00 0.00 93 1011.1
20260905061522 25 353 0.0 0.0 0.00 0.00 0.00 92 1011.0
20260905061020 25 350 1.6 1.6 0.00 0.00 0.00 93 1010.9
20260905060517 25 39 0.0 0.0 0.00 0.00 0.00 93 1010.9
20260905060013 25 39 0.0 1.6 0.00 0.00 0.00 92 1011.0
20260905055511 25 39 0.0 0.0 0.00 0.00 0.00 92 1010.9
20260905055006 25 39 0.0 0.0 0.00 0.00 0.00 91 1011.0
20260905054501 25 39 0.0 0.0 0.00 0.00 0.00 91 1010.9
20260905053956 25 39 0.0 0.0 0.00 0.00 0.00 91 1011.0
20260905053451 25 62 0.0 0.0 0.00 0.00 0.00 91 1011.0
20260905052947 25 82 1.6 1.6 0.00 0.00 0.00 91 1011.1